Temp
13 13 13 13 14 14 14 14 14 14 14 14 14 14 15 15 15 16 16 16 16 16 16 16 16 16 15 15 13 14 16 19 20 20 19 19 19 19 18 18 17 16 16 15 16
13 13 13 13 14 14 14 14 14 14 14 14 14 15 15 15 15 15 16 16 16 16 16 16 16 16 14 14 15 15 17 18 19 19 19 19 19 19 19 18 17 16 17 16 16
13 13 13 13 14 14 14 14 14 14 14 14 15 15 15 15 15 14 15 15 16 16 16 15 13 13 14 15 16 16 16 17 18 18 18 18 18 19 19 19 19 17 16 16 16
12 13 13 14 14 14 14 14 14 14 15 15 15 15 15 14 15 14 14 15 15 15 15 15 15 13 14 16 16 16 17 17 17 18 18 18 18 18 18 19 19 18 16 17 16
13 13 13 14 14 14 14 15 15 15 15 15 15 15 15 15 14 14 14 15 15 15 14 14 13 14 15 16 17 17 17 17 18 18 18 18 17 18 18 18 19 18 17 17 17
13 13 14 14 14 14 15 15 15 15 15 15 15 15 15 14 14 15 14 14 14 14 14 13 13 14 14 15 15 16 16 17 17 17 18 18 18 18 18 19 18 16 16 14 14
13 13 14 14 14 14 15 15 15 15 16 16 16 15 15 13 14 15 14 14 14 14 13 13 13 13 14 15 16 16 16 17 17 18 18 18 18 18 18 18 18 17 16 15 14
13 13 14 14 14 14 14 15 15 15 16 16 16 15 13 15 15 14 14 13 13 13 13 12 12 13 13 14 15 15 16 17 18 19 18 18 18 18 19 19 19 18 17 15 15
13 13 14 14 14 14 14 15 15 15 15 15 15 15 13 14 14 13 14 13 12 12 11 12 13 13 13 14 15 16 17 18 18 19 18 17 18 18 18 18 18 18 18 16 15
13 13 13 14 14 14 14 15 15 15 15 15 14 14 13 12 14 14 14 14 12 12 11 12 12 13 14 15 16 17 18 19 19 19 18 18 18 18 18 18 18 18 18 18 15
12 12 13 13 14 14 14 15 15 15 14 14 14 14 12 13 13 13 13 13 12 12 13 13 13 14 15 16 16 16 17 17 18 18 18 17 17 17 18 18 18 18 18 18 16
12 12 13 13 14 14 14 14 14 14 12 13 13 12 12 12 12 12 13 12 12 13 14 14 15 15 15 15 16 16 16 17 17 17 17 17 17 17 17 17 18 18 18 18 16
12 12 13 13 13 14 14 14 14 14 13 11 11 11 11 12 12 12 12 13 13 14 15 15 16 16 15 15 15 16 16 16 17 17 17 17 17 17 17 18 18 18 18 18 17
12 12 13 13 13 13 13 13 13 13 13 12 12 11 11 12 12 12 12 12 13 14 14 15 15 15 15 15 16 16 16 16 16 16 17 17 19 18 18 18 18 18 18 18 17
11 12 12 12 12 12 12 13 13 13 17 12 12 12 11 12 12 12 11 12 13 13 14 15 15 15 15 15 15 15 16 16 16 16 17 17 17 18 18 18 18 18 18 19 18
11 11 12 12 12 12 12 12 12 12 16 12 11 12 13 13 13 12 12 12 12 13 14 14 14 14 14 14 14 15 15 15 15 16 17 17 17 18 18 18 18 18 18 18 17
10 11 11 11 11 12 12 12 11 15 12 13 12 12 12 13 13 12 13 14 13 13 15 14 15 15 14 14 15 15 15 16 17 17 18 17 17 18 18 18 18 17 16 15 16
10 10 10 11 11 11 11 9 13 13 12 11 11 12 13 12 13 12 13 14 13 12 13 14 15 15 14 14 14 14 15 16 16 17 18 18 18 18 17 17 16 16 15 15 15
10 10 10 10 10 10 10 11 14 11 10 11 12 13 13 12 11 12 13 13 12 11 11 12 14 13 13 14 14 15 15 15 16 16 17 17 17 16 17 17 17 16 15 15 13
9 9 9 9 9 9 8 11 10 9 9 10 12 11 12 12 12 13 13 12 12 11 11 11 12 12 13 13 14 14 14 15 15 15 15 16 16 16 16 15 16 16 15 13 14
8 8 9 9 9 8 9 11 9 8 8 9 10 11 11 11 11 12 12 12 11 10 10 11 11 12 12 13 14 14 14 13 12 14 13 16 16 15 15 14 14 13 13 12 14
8 6 8 8 7 8 10 9 7 8 8 8 8 9 10 10 10 11 11 11 10 9 9 10 10 10 12 13 12 13 11 11 13 10 9 9 13 12 11 13 13 12 13 14 14
7 6 7 8 8 10 9 8 7 8 8 8 9 9 9 9 9 10 10 9 9 9 9 8 9 10 12 13 11 11 9 10 11 12 11 10 11 11 9 8 9 10 14 13 13
6 6 6 6 6 7 8 8 8 7 7 7 8 8 8 9 9 9 9 9 9 8 8 7 9 10 11 11 11 12 11 12 12 13 11 10 9 9 8 6 8 9 11 13 13
4 5 5 7 7 6 6 7 7 8 7 7 7 8 8 8 8 9 9 9 9 8 8 8 8 9 9 10 11 12 12 12 13 12 10 11 9 9 8 7 8 8 8 11 12
4 3 4 4 4 4 6 6 7 7 7 7 7 8 8 7 7 7 8 7 7 7 7 8 7 8 8 9 10 11 12 12 13 13 12 12 11 9 8 7 8 8 8 9 11
3 4 4 4 5 5 6 7 6 6 6 6 6 6 6 7 6 6 6 6 7 7 7 7 7 8 9 10 11 12 12 12 12 11 11 10 8 9 8 7 7 7 8 9 9
Height
3191 3190 3189 3187 3185 3184 3182 3181 3180 3179 3179 3178 3178 3178 3178 3178 3178 3178 3178 3178 3178 3178 3178 3179 3179 3179 3179 3180 3181 3182 3184 3173 3171 3170 3172 3172 3172 3170 3169 3169 3167 3165 3166 3161 3160
3188 3186 3185 3184 3182 3181 3179 3178 3177 3176 3175 3175 3174 3174 3174 3174 3174 3174 3174 3174 3175 3175 3176 3176 3177 3177 3178 3180 3182 3182 3180 3173 3171 3172 3173 3172 3172 3170 3170 3168 3165 3165 3162 3160 3159
3184 3182 3181 3179 3178 3176 3175 3174 3173 3172 3171 3170 3170 3170 3171 3171 3173 3169 3170 3171 3171 3172 3173 3174 3176 3177 3179 3181 3181 3180 3178 3176 3173 3172 3172 3172 3171 3169 3168 3167 3165 3165 3162 3160 3158
3181 3179 3178 3176 3175 3173 3172 3171 3169 3168 3167 3166 3166 3166 3167 3169 3174 3166 3167 3168 3169 3170 3172 3173 3174 3176 3178 3179 3178 3177 3175 3174 3172 3172 3171 3170 3169 3168 3168 3167 3166 3166 3161 3159 3158
3179 3178 3176 3174 3172 3171 3170 3168 3167 3165 3164 3163 3162 3162 3164 3165 3166 3161 3164 3165 3166 3167 3168 3171 3173 3175 3176 3176 3176 3173 3172 3170 3169 3167 3166 3166 3165 3165 3164 3165 3164 3164 3160 3158 3156
3178 3176 3175 3173 3171 3169 3167 3166 3165 3163 3162 3160 3160 3159 3160 3162 3158 3158 3159 3161 3162 3164 3166 3168 3171 3174 3173 3173 3172 3170 3168 3166 3164 3162 3162 3161 3160 3161 3161 3162 3161 3160 3159 3157 3156
3176 3175 3173 3171 3169 3167 3165 3164 3162 3161 3159 3158 3157 3156 3157 3159 3155 3154 3154 3156 3158 3160 3163 3166 3167 3169 3170 3169 3169 3166 3164 3161 3159 3157 3156 3155 3154 3155 3156 3157 3157 3157 3157 3156 3154
3174 3172 3171 3169 3167 3166 3163 3161 3159 3158 3157 3155 3154 3153 3154 3152 3152 3151 3152 3153 3154 3156 3157 3160 3162 3163 3165 3166 3164 3163 3161 3156 3153 3151 3152 3153 3150 3150 3151 3151 3151 3154 3154 3154 3152
3172 3170 3169 3168 3165 3163 3161 3158 3156 3155 3154 3153 3153 3152 3157 3150 3150 3149 3150 3151 3153 3154 3154 3155 3156 3159 3162 3161 3159 3156 3152 3149 3148 3147 3146 3150 3146 3147 3147 3148 3148 3149 3150 3150 3150
3170 3168 3166 3164 3162 3161 3159 3156 3154 3153 3152 3151 3151 3153 3152 3150 3148 3148 3148 3148 3150 3152 3152 3151 3154 3155 3156 3157 3151 3149 3144 3141 3140 3142 3142 3142 3141 3142 3142 3142 3142 3142 3143 3144 3144
3167 3165 3163 3161 3160 3158 3157 3154 3155 3151 3150 3150 3150 3150 3148 3148 3147 3146 3145 3144 3146 3149 3151 3152 3153 3151 3150 3149 3148 3146 3144 3141 3139 3139 3139 3138 3136 3137 3136 3136 3135 3135 3136 3137 3138
3164 3161 3160 3159 3157 3155 3154 3152 3152 3152 3149 3148 3147 3148 3147 3147 3148 3147 3145 3147 3147 3148 3149 3150 3146 3147 3146 3145 3143 3142 3139 3135 3135 3135 3135 3132 3130 3131 3130 3129 3129 3129 3129 3130 3132
3162 3159 3158 3156 3155 3154 3152 3152 3150 3149 3148 3147 3146 3147 3148 3147 3148 3149 3146 3148 3147 3146 3146 3144 3142 3142 3140 3139 3138 3136 3134 3132 3130 3129 3127 3125 3123 3124 3123 3120 3122 3123 3123 3124 3126
3160 3157 3156 3154 3155 3152 3151 3150 3149 3148 3148 3149 3148 3147 3147 3147 3146 3144 3144 3145 3145 3144 3142 3140 3138 3137 3136 3133 3133 3129 3129 3126 3125 3124 3119 3121 3112 3113 3116 3116 3118 3117 3118 3119 3121
3159 3156 3154 3152 3151 3150 3150 3148 3148 3148 3144 3148 3148 3143 3144 3147 3146 3144 3141 3141 3141 3141 3141 3137 3135 3133 3131 3129 3128 3124 3124 3121 3120 3116 3114 3113 3113 3107 3109 3112 3112 3113 3113 3114 3114
3157 3155 3153 3151 3149 3148 3146 3146 3146 3149 3142 3146 3145 3145 3146 3145 3144 3142 3142 3140 3139 3137 3135 3133 3131 3128 3127 3126 3124 3122 3120 3117 3114 3112 3104 3106 3108 3101 3102 3103 3105 3107 3110 3108 3108
3154 3151 3150 3148 3148 3146 3145 3146 3149 3144 3144 3147 3145 3144 3143 3143 3142 3141 3140 3140 3139 3137 3132 3130 3126 3125 3125 3123 3120 3117 3116 3109 3104 3101 3095 3098 3097 3094 3097 3098 3098 3101 3104 3106 3108
3150 3148 3147 3146 3145 3144 3144 3148 3148 3144 3145 3144 3143 3142 3142 3141 3140 3139 3138 3137 3136 3136 3132 3127 3125 3123 3122 3121 3117 3115 3112 3106 3099 3092 3086 3088 3088 3088 3092 3094 3096 3100 3101 3105 3108
3148 3146 3145 3143 3143 3143 3145 3147 3143 3144 3144 3143 3142 3140 3140 3140 3139 3138 3136 3136 3135 3136 3135 3129 3124 3123 3121 3117 3116 3110 3107 3104 3099 3094 3090 3085 3087 3089 3089 3092 3094 3098 3101 3105 3105
3146 3145 3143 3142 3141 3142 3144 3144 3143 3141 3141 3142 3141 3140 3139 3138 3138 3136 3135 3134 3134 3134 3132 3129 3123 3121 3117 3115 3111 3106 3105 3100 3096 3091 3089 3085 3086 3087 3088 3092 3093 3096 3097 3095 3097
3144 3143 3141 3140 3140 3141 3143 3142 3141 3139 3139 3141 3140 3139 3138 3138 3137 3135 3134 3134 3132 3132 3130 3126 3123 3119 3115 3111 3106 3105 3102 3097 3097 3095 3098 3084 3084 3088 3090 3081 3088 3085 3089 3088 3091
3142 3144 3139 3138 3141 3141 3141 3139 3137 3138 3137 3138 3137 3137 3136 3136 3135 3134 3133 3132 3130 3130 3127 3125 3122 3117 3112 3108 3105 3103 3099 3097 3096 3101 3097 3104 3085 3077 3076 3091 3088 3093 3085 3082 3086
3138 3138 3135 3136 3139 3139 3137 3137 3135 3136 3136 3136 3136 3135 3134 3134 3134 3132 3131 3131 3130 3128 3125 3124 3121 3115 3107 3101 3100 3103 3104 3106 3101 3099 3094 3103 3078 3078 3077 3072 3080 3078 3079 3078 3080
3136 3139 3137 3133 3134 3134 3135 3134 3134 3131 3131 3132 3132 3132 3132 3132 3131 3130 3129 3128 3127 3126 3122 3120 3118 3116 3111 3103 3101 3101 3101 3097 3094 3090 3088 3095 3088 3089 3084 3078 3080 3076 3075 3074 3075
3134 3137 3132 3135 3135 3132 3131 3131 3131 3132 3129 3129 3129 3129 3129 3129 3128 3126 3125 3124 3123 3122 3120 3120 3115 3113 3109 3104 3100 3095 3092 3090 3087 3086 3085 3084 3079 3075 3077 3076 3078 3074 3078 3070 3071
3131 3131 3131 3129 3127 3126 3127 3128 3128 3128 3128 3127 3127 3126 3126 3126 3126 3123 3122 3120 3119 3117 3116 3115 3110 3109 3104 3101 3096 3090 3088 3085 3082 3082 3081 3079 3078 3072 3076 3078 3074 3074 3072 3068 3065
3124 3124 3123 3126 3125 3125 3125 3125 3124 3123 3123 3122 3123 3123 3123 3123 3118 3117 3116 3114 3113 3112 3110 3110 3107 3105 3098 3095 3090 3084 3079 3079 3078 3079 3079 3082 3080 3074 3076 3075 3073 3070 3067 3064 3065
Wind_Speed
19 19 18 19 19 19 20 20 19 19 19 20 20 19 17 14 13 13 14 14 14 14 13 15 17 17 16 13 13 11 13 18 12 4 8 10 10 10 7 3 4 3 2 7 11
20 20 19 19 19 20 20 20 20 20 20 20 20 21 21 20 18 16 16 14 13 14 15 14 14 15 15 12 13 13 16 20 13 13 13 12 10 9 7 7 6 2 5 10 8
17 16 17 17 18 18 18 18 18 19 20 21 20 20 20 21 20 18 20 15 14 14 12 12 9 11 13 13 16 17 20 20 21 16 14 16 13 12 11 11 8 6 8 10 9
15 13 13 13 14 14 14 13 13 14 16 18 20 20 19 18 7 16 18 19 16 13 12 12 11 12 12 14 15 20 20 23 23 22 20 19 17 16 13 13 13 8 16 11 12
12 11 10 10 10 11 10 9 8 9 12 14 16 17 17 18 15 26 22 18 15 14 12 12 12 13 15 16 16 19 20 21 22 23 23 22 22 20 19 14 13 8 15 13 10
12 12 12 11 10 10 10 9 9 9 9 11 12 14 14 12 25 25 23 22 22 19 16 15 15 15 18 20 19 20 22 24 23 24 24 24 25 23 21 16 14 11 12 12 12
13 13 12 11 11 12 12 11 12 11 11 11 11 10 11 10 20 19 21 21 21 19 17 15 17 19 19 17 16 19 22 23 22 21 21 21 24 24 23 23 23 16 13 15 16
15 14 14 13 12 12 13 14 13 11 10 10 10 10 6 12 16 18 18 18 20 20 23 20 17 20 22 22 25 26 26 28 21 16 16 15 21 18 18 18 19 18 17 18 19
15 15 14 13 12 13 14 14 12 9 8 6 7 5 4 8 7 13 15 15 14 16 19 22 23 22 19 23 26 25 32 27 24 18 17 20 22 16 16 17 20 21 22 21 21
14 15 14 14 14 14 14 13 10 8 5 4 1 2 6 7 10 10 12 14 17 11 14 17 19 22 24 24 31 27 27 28 28 17 21 19 24 22 21 20 22 23 21 24 23
14 16 15 14 14 14 13 11 10 9 6 5 9 9 8 6 5 7 7 6 12 12 16 14 14 24 23 25 28 31 31 33 31 28 22 28 30 25 21 20 20 21 21 24 24
15 17 16 15 14 13 12 10 8 8 6 5 3 1 5 4 5 6 8 2 7 12 13 15 22 19 20 23 28 29 32 34 32 29 30 33 31 27 25 25 22 20 18 21 23
15 16 16 15 13 11 10 9 8 7 4 8 7 5 4 3 4 4 4 7 7 11 12 17 20 19 16 21 24 27 30 32 33 30 31 31 31 27 26 24 19 20 19 19 22
17 17 15 14 12 10 9 8 5 4 2 4 1 5 1 5 4 8 5 6 6 11 12 15 14 17 19 23 24 29 25 28 29 29 28 27 30 30 20 20 18 21 18 19 20
17 17 15 13 11 9 8 7 5 3 5 3 3 7 4 4 7 9 7 4 8 11 11 15 15 15 18 19 19 26 24 27 29 30 30 30 25 31 21 23 20 19 20 19 21
18 15 14 13 11 10 8 6 4 1 2 1 2 4 4 7 7 7 7 8 8 7 12 12 14 17 15 16 19 21 22 24 26 28 27 28 31 33 29 23 18 17 17 6 11
20 17 14 13 10 8 6 3 5 7 3 2 3 7 5 5 6 5 5 5 6 12 13 15 9 10 11 14 16 18 19 22 20 19 17 27 32 33 23 20 18 11 4 3 6
20 18 15 12 10 7 3 4 7 3 3 6 6 5 3 5 4 5 5 6 4 10 15 12 16 10 11 17 19 18 21 22 21 17 18 24 24 28 25 18 9 8 8 6 5
19 17 14 11 8 5 0 6 5 4 5 6 7 4 3 3 2 5 5 7 6 7 10 15 16 20 16 16 16 19 20 24 31 31 26 30 14 18 11 15 14 14 11 9 8
16 15 12 10 7 3 3 9 7 6 5 4 6 4 5 4 5 5 5 3 6 8 12 16 25 19 16 19 14 13 17 22 19 18 19 16 25 20 19 25 23 22 16 10 12
15 10 11 9 6 3 6 6 6 7 4 4 5 6 6 5 5 7 5 8 6 12 14 17 18 21 18 18 20 17 21 14 30 12 11 14 16 23 21 6 5 10 11 14 21
12 3 16 9 4 6 7 7 11 6 7 5 7 8 8 7 9 8 7 7 12 13 16 13 19 24 25 21 18 21 13 15 17 13 20 26 19 7 11 14 12 13 24 23 18
13 10 15 6 2 9 11 7 7 7 8 6 7 8 7 8 8 5 8 10 13 13 15 14 14 23 20 19 9 16 24 22 22 18 28 10 26 33 20 21 7 12 14 9 15
12 5 9 6 9 9 9 10 11 10 9 11 10 10 10 11 10 13 14 15 13 14 19 14 14 17 23 29 29 19 19 22 19 23 17 29 19 26 33 37 12 13 11 14 14
8 6 10 4 5 7 9 9 8 10 10 9 9 11 12 13 14 15 15 14 16 15 15 16 19 19 22 25 27 29 26 23 24 19 13 17 22 22 15 23 16 7 9 13 12
7 8 10 12 14 13 12 10 13 13 14 12 13 11 12 14 14 18 17 16 19 20 17 18 25 22 24 22 22 27 24 26 23 25 21 17 23 17 12 14 14 14 12 7 9
16 14 13 10 11 11 10 14 12 11 13 14 15 14 14 14 15 16 20 22 22 22 21 19 19 19 25 19 21 24 22 19 15 15 18 16 20 27 16 14 13 14 15 9 8
Wind_Direction
290 288 287 286 286 285 282 280 278 275 271 268 272 277 280 281 276 270 269 272 268 272 272 274 270 268 272 274 269 279 282 267 307 320 329 332 351 2 3 355 355 1 34 265 337
290 285 283 284 284 283 281 280 279 278 277 274 270 265 263 266 269 274 266 265 260 261 271 282 289 287 267 262 260 267 268 276 306 300 293 304 315 335 342 324 310 273 326 317 324
303 293 287 289 291 289 286 284 281 278 275 271 269 266 268 271 276 268 268 272 255 246 249 257 247 248 253 254 261 264 268 271 278 280 295 282 285 301 305 318 321 270 282 315 313
312 311 307 304 299 296 295 291 287 279 273 270 267 268 268 267 266 236 260 266 267 271 256 253 255 241 255 267 271 269 271 276 280 277 279 273 275 279 287 295 315 294 262 307 300
324 325 323 321 317 318 320 320 308 287 280 275 273 270 266 263 263 255 255 255 257 258 251 252 234 249 258 268 272 272 278 283 282 278 274 272 274 276 276 283 290 268 254 295 286
328 328 325 322 319 321 325 324 311 305 297 294 283 271 266 263 248 263 258 255 257 255 256 235 243 254 260 265 270 274 277 280 281 276 273 272 270 270 269 265 268 260 237 235 229
322 327 328 325 324 322 324 322 314 309 301 297 296 283 266 244 257 261 262 255 253 250 239 246 248 248 263 271 283 270 277 283 280 278 273 272 267 264 265 263 262 258 240 230 224
319 321 325 327 322 324 330 327 314 308 303 297 291 283 248 260 262 261 257 246 251 251 246 240 243 252 254 266 269 272 277 276 276 273 269 273 276 276 269 260 244 251 257 240 230
312 315 317 318 324 329 330 324 317 311 306 294 288 280 247 295 270 262 258 257 249 249 250 248 251 253 263 263 270 269 264 268 276 268 262 269 278 282 273 260 259 255 256 251 229
317 314 318 325 329 328 331 327 326 329 333 338 300 92 259 262 285 287 270 256 240 252 252 262 253 255 256 254 260 272 277 271 270 280 267 264 277 280 280 267 263 259 260 246 232
323 318 326 330 331 329 331 336 323 323 330 267 245 223 258 284 307 327 346 277 247 243 247 257 258 249 259 259 265 269 272 274 272 271 271 268 278 278 276 272 266 257 256 239 235
330 319 327 331 331 331 332 335 327 297 305 285 267 193 252 287 11 321 351 84 242 253 262 261 252 263 272 264 264 268 270 268 272 271 268 272 273 273 270 272 263 249 249 238 232
333 325 327 330 333 331 331 331 324 317 284 254 244 240 252 275 270 255 326 278 270 270 268 265 267 271 266 267 271 265 265 270 272 274 269 271 265 269 272 265 256 243 247 240 230
335 325 325 325 325 324 323 327 326 320 229 234 264 266 303 287 276 262 269 281 268 278 275 272 275 270 272 271 267 269 270 272 271 268 266 263 270 267 259 261 262 247 244 231 231
334 326 323 319 320 323 326 333 333 336 263 214 218 255 319 237 267 272 280 299 287 279 271 275 284 280 276 279 275 274 276 273 269 268 269 261 263 264 262 260 256 248 239 237 223
329 326 323 320 319 322 325 334 343 245 191 209 239 289 331 276 278 284 292 295 299 319 289 287 299 280 281 281 276 279 282 273 265 261 261 258 260 262 255 251 250 241 230 193 139
325 327 325 323 324 320 329 6 325 257 298 233 235 307 280 274 272 293 279 255 319 333 330 300 299 298 292 294 297 274 270 273 250 246 249 256 251 253 255 253 238 230 279 286 230
325 323 323 318 316 319 335 29 259 289 267 290 304 298 253 299 240 294 281 272 293 332 322 337 315 330 300 301 304 287 282 285 283 270 266 271 251 251 239 234 223 241 281 297 248
319 317 317 316 311 305 316 253 293 267 266 295 290 268 247 292 292 313 273 273 298 325 334 315 305 307 296 294 293 290 278 274 262 262 268 277 263 274 262 226 230 222 225 258 267
317 317 312 309 300 278 256 254 279 253 283 302 283 261 272 299 301 308 290 278 289 308 318 308 302 303 299 298 279 318 289 294 256 269 287 270 291 266 251 236 243 234 248 261 267
322 344 309 313 299 274 246 282 254 271 258 249 261 267 270 284 291 299 280 291 299 317 318 309 300 303 296 283 310 301 275 263 290 330 316 270 266 272 301 299 235 286 303 265 275
326 334 290 306 296 268 254 240 251 251 279 254 266 254 258 277 289 279 267 278 309 317 319 311 301 294 291 290 293 281 310 335 313 294 301 310 302 326 52 287 204 233 255 267 259
323 299 294 275 249 264 263 265 259 250 252 249 257 262 254 274 292 273 271 283 305 311 315 309 304 307 296 284 346 294 330 271 284 275 227 197 285 286 298 325 308 271 274 276 278
327 318 303 294 258 254 269 272 262 270 250 252 248 256 270 270 273 276 283 294 295 306 300 305 287 277 284 294 305 286 272 275 285 297 324 307 320 314 292 274 279 292 298 287 280
321 274 262 223 281 241 259 253 255 257 272 254 267 260 261 273 280 279 284 282 284 292 304 299 287 286 286 284 285 288 291 282 280 289 268 268 299 286 321 327 288 271 267 281 279
290 279 276 271 277 267 264 261 260 255 260 259 264 251 262 275 282 289 285 280 288 293 292 292 285 284 285 283 276 272 272 270 278 279 289 306 306 12 319 307 283 262 264 249 265
291 289 279 269 273 274 270 258 254 256 262 259 251 258 263 277 275 271 283 285 286 288 292 292 283 277 278 288 288 278 270 278 268 287 307 292 296 287 290 287 264 225 204 162 139